User: anonymous   Login
Location: Unspecified
(0.0000°N, 0.0000°E)
Time: 10:26:53
(UTC+02:00)
Language:

Cosmos 2251 - Orbit

View from above orbital plane
View from above orbital plane
View from above satellite
View from above satellite

Ground track
Ground track

The orbit data is extracted from the following two-line orbital elements,

1 22675U 93036A   15089.89071773  .00000211  00000-0  87373-4 0  9994
2 22675 074.0382 252.9988 0025614 210.8668 262.5048 14.32410025138157
Epoch (UTC): 30 March 2015 21:22:38
Eccentricity: 0.0025614
inclination: 74.0382°
perigee height: 765 km
apogee height: 802 km
right ascension of ascending node: 252.9988°
argument of perigee: 210.8668°
revolutions per day: 14.32410025
mean anomaly at epoch: 262.5048°
orbit number at epoch: 13815

The dashed part of the orbit path shows where the satellite is in the earth's shadow,  

DLR